AAL1 KTVL-KORD

Flight info

Callsign AAL1
Flight time 3h 7m
Altitude 39000
Route RICHY7 SWR FMG MACUS Q124 BVL OCS J94 ONL VIRGN Q122 VIGGR MYRRS FYTTE7
Aircraft B738/M-VGDW/C

Departure

Time 2026-04-11 18:28
Airport Lake Tahoe Airport (KTVL)

Arrival

Time 2026-04-11 21:35
Airport Chicago O'Hare International Airport (KORD)
Time Latitude Longitude Altitude Speed Heading
2026-04-11 18:11 38.89268 -119.99805 6274 ft 0 kts
2026-04-11 18:23 38.89276 -119.99803 6274 ft 4 kts
2026-04-11 18:23 38.89340 -119.99739 6274 ft 17 kts 49°
2026-04-11 18:24 38.89451 -119.99692 6273 ft 16 kts 10°
2026-04-11 18:24 38.89499 -119.99648 6272 ft 3 kts 94°
2026-04-11 18:24 38.89496 -119.99631 6272 ft 6 kts 122°
2026-04-11 18:24 38.89438 -119.99624 6272 ft 9 kts 190°
2026-04-11 18:25 38.89337 -119.99655 6273 ft 21 kts 194°
2026-04-11 18:25 38.89150 -119.99709 6273 ft 30 kts 193°
2026-04-11 18:25 38.88954 -119.99766 6274 ft 27 kts 193°
2026-04-11 18:26 38.88604 -119.99869 6274 ft 23 kts 193°
2026-04-11 18:26 38.88450 -119.99918 6273 ft 22 kts 189°
2026-04-11 18:26 38.88308 -119.99955 6272 ft 17 kts 178°
2026-04-11 18:26 38.88273 -119.99869 6272 ft 9 kts 38°
2026-04-11 18:27 38.88292 -119.99860 6272 ft 0 kts 13°
2026-04-11 18:27 38.88364 -119.99838 6273 ft 39 kts 12°
2026-04-11 18:28 38.88885 -119.99686 6274 ft 111 kts 14°
2026-04-11 18:28 38.89854 -119.99403 6271 ft 173 kts 13°
2026-04-11 18:28 38.91194 -119.99015 6487 ft 205 kts 12°
2026-04-11 18:28 38.92605 -119.98629 7152 ft 207 kts 13°
2026-04-11 18:29 38.94023 -119.98258 7822 ft 215 kts
2026-04-11 18:29 38.95528 -119.98440 8346 ft 219 kts 340°
2026-04-11 18:29 38.96952 -119.99038 8909 ft 225 kts 341°
2026-04-11 18:29 38.98569 -119.99361 9263 ft 245 kts
2026-04-11 18:30 39.00227 -119.98740 9788 ft 253 kts 27°
2026-04-11 18:30 39.01771 -119.97601 10309 ft 262 kts 31°
2026-04-11 18:30 39.03409 -119.96396 10636 ft 280 kts 28°
2026-04-11 18:30 39.05188 -119.95227 11090 ft 293 kts 25°
2026-04-11 18:31 39.07031 -119.94089 11666 ft 300 kts 25°
2026-04-11 18:31 39.08947 -119.92921 12275 ft 308 kts 24°
2026-04-11 18:31 39.10955 -119.91695 12701 ft 324 kts 24°
2026-04-11 18:31 39.13281 -119.90272 13216 ft 341 kts 24°
2026-04-11 18:32 39.15592 -119.88856 13760 ft 355 kts 24°
2026-04-11 18:32 39.17879 -119.87452 14154 ft 372 kts 24°
2026-04-11 18:32 39.20238 -119.86003 14601 ft 386 kts 24°
2026-04-11 18:32 39.22725 -119.84476 15011 ft 401 kts 24°
2026-04-11 18:33 39.25253 -119.82922 15550 ft 412 kts 24°
2026-04-11 18:33 39.27864 -119.81323 16217 ft 418 kts 24°
2026-04-11 18:33 39.30501 -119.79708 16978 ft 421 kts 23°
2026-04-11 18:33 39.33147 -119.78084 17628 ft 427 kts 23°
2026-04-11 18:34 39.35849 -119.76421 18343 ft 431 kts 23°
2026-04-11 18:34 39.38572 -119.74741 19033 ft 435 kts 23°
2026-04-11 18:34 39.41319 -119.73041 19682 ft 440 kts 23°
2026-04-11 18:34 39.44065 -119.71343 20282 ft 446 kts 23°
2026-04-11 18:35 39.46881 -119.69598 20882 ft 450 kts 23°
2026-04-11 18:35 39.49646 -119.67616 21462 ft 457 kts 31°
2026-04-11 18:35 39.52152 -119.65144 22063 ft 463 kts 40°
2026-04-11 18:35 39.54393 -119.62122 22627 ft 468 kts 50°
2026-04-11 18:36 39.56302 -119.58673 23206 ft 472 kts 57°
2026-04-11 18:36 39.57997 -119.54999 23774 ft 477 kts 61°
2026-04-11 18:36 39.59567 -119.51260 24329 ft 481 kts 63°
2026-04-11 18:36 39.61118 -119.47386 24860 ft 486 kts 63°
2026-04-11 18:37 39.62664 -119.43470 25442 ft 489 kts 63°
2026-04-11 18:37 39.64204 -119.39570 25965 ft 493 kts 63°
2026-04-11 18:37 39.65800 -119.35548 26485 ft 497 kts 63°
2026-04-11 18:37 39.67390 -119.31577 26890 ft 501 kts 63°
2026-04-11 18:38 39.69022 -119.27541 27279 ft 506 kts 63°
2026-04-11 18:38 39.70658 -119.23518 27668 ft 511 kts 63°
2026-04-11 18:38 39.72331 -119.19432 28087 ft 514 kts 63°
2026-04-11 18:38 39.74019 -119.15302 28459 ft 519 kts 62°
2026-04-11 18:39 39.75705 -119.11179 28724 ft 525 kts 62°
2026-04-11 18:39 39.77429 -119.06960 29100 ft 529 kts 62°
2026-04-11 18:39 39.79164 -119.02713 29536 ft 531 kts 62°
2026-04-11 18:39 39.80874 -118.98525 29965 ft 533 kts 62°
2026-04-11 18:40 39.82601 -118.94289 30661 ft 528 kts 62°
2026-04-11 18:40 39.84303 -118.90099 31515 ft 519 kts 61°
2026-04-11 18:40 39.85973 -118.85984 32361 ft 510 kts 61°
2026-04-11 18:40 39.87591 -118.81987 33122 ft 502 kts 61°
2026-04-11 18:41 39.89206 -118.77995 33917 ft 493 kts 61°
2026-04-11 18:41 39.90777 -118.74124 34587 ft 486 kts 60°
2026-04-11 18:41 39.92360 -118.70239 35021 ft 482 kts 61°
2026-04-11 18:41 39.93943 -118.66363 35216 ft 486 kts 61°
2026-04-11 18:42 39.95519 -118.62505 35338 ft 490 kts 60°
2026-04-11 18:42 39.97127 -118.58562 35513 ft 493 kts 60°
2026-04-11 18:42 39.98721 -118.54655 35690 ft 495 kts 61°
2026-04-11 18:42 40.00327 -118.50706 35935 ft 495 kts 61°
2026-04-11 18:43 40.01938 -118.46738 36207 ft 493 kts 61°
2026-04-11 18:43 40.03538 -118.42789 36529 ft 491 kts 61°
2026-04-11 18:43 40.05125 -118.38863 36873 ft 489 kts 61°
2026-04-11 18:43 40.06704 -118.34953 37177 ft 489 kts 62°
2026-04-11 18:44 40.08302 -118.30994 37413 ft 489 kts 62°
2026-04-11 18:44 40.09871 -118.27096 37641 ft 490 kts 62°
2026-04-11 18:44 40.11449 -118.23174 37798 ft 492 kts 62°
2026-04-11 18:44 40.13044 -118.19198 38021 ft 491 kts 62°
2026-04-11 18:45 40.14610 -118.15292 38336 ft 488 kts 62°
2026-04-11 18:45 40.16186 -118.11354 38649 ft 485 kts 62°
2026-04-11 18:45 40.17727 -118.07498 38879 ft 484 kts 63°
2026-04-11 18:46 40.20537 -117.99469 38900 ft 488 kts 70°
2026-04-11 18:46 40.22708 -117.91065 38907 ft 492 kts 73°
2026-04-11 18:47 40.24670 -117.82489 38905 ft 497 kts 74°
2026-04-11 18:47 40.26628 -117.73776 38896 ft 501 kts 74°
2026-04-11 18:48 40.28598 -117.65073 38908 ft 503 kts 74°
2026-04-11 18:48 40.30605 -117.56284 38910 ft 504 kts 74°
2026-04-11 18:49 40.32614 -117.47515 38910 ft 504 kts 74°
2026-04-11 18:49 40.34622 -117.38760 38930 ft 504 kts 74°
2026-04-11 18:50 40.36620 -117.30010 38915 ft 505 kts 75°
2026-04-11 18:50 40.38621 -117.21206 38911 ft 504 kts 75°
2026-04-11 18:51 40.40614 -117.12400 38920 ft 504 kts 75°
2026-04-11 18:51 40.42598 -117.03599 38918 ft 504 kts 75°
2026-04-11 18:52 40.44564 -116.94845 38933 ft 504 kts 75°
2026-04-11 18:52 40.46533 -116.86063 38938 ft 503 kts 75°
2026-04-11 18:53 40.48506 -116.77212 38925 ft 504 kts 75°
2026-04-11 18:53 40.50458 -116.68408 38920 ft 505 kts 75°
2026-04-11 18:54 40.52407 -116.59584 38941 ft 504 kts 75°
2026-04-11 18:54 40.54348 -116.50770 38914 ft 505 kts 75°
2026-04-11 18:55 40.56166 -116.41920 38928 ft 505 kts 79°
2026-04-11 18:55 40.57342 -116.32828 38930 ft 504 kts 85°
2026-04-11 18:56 40.58099 -116.23721 38938 ft 503 kts 86°
2026-04-11 18:56 40.58751 -116.14606 38907 ft 503 kts 86°
2026-04-11 18:57 40.59395 -116.05501 38916 ft 503 kts 86°
2026-04-11 18:57 40.60051 -115.96391 38917 ft 503 kts 86°
2026-04-11 18:58 40.60720 -115.87238 38921 ft 503 kts 86°
2026-04-11 18:58 40.61391 -115.78081 38947 ft 502 kts 86°
2026-04-11 18:59 40.62049 -115.69015 38949 ft 503 kts 86°
2026-04-11 18:59 40.62711 -115.59826 38927 ft 503 kts 86°
2026-04-11 19:00 40.63361 -115.50692 38909 ft 504 kts 86°
2026-04-11 19:00 40.64007 -115.41537 38911 ft 503 kts 86°
2026-04-11 19:01 40.64639 -115.32439 38909 ft 503 kts 87°
2026-04-11 19:01 40.65266 -115.23290 38883 ft 503 kts 87°
2026-04-11 19:02 40.65884 -115.14135 38918 ft 503 kts 88°
2026-04-11 19:02 40.66494 -115.05016 38920 ft 502 kts 88°
2026-04-11 19:03 40.67099 -114.95904 38933 ft 503 kts 88°
2026-04-11 19:03 40.67697 -114.86777 38934 ft 503 kts 87°
2026-04-11 19:04 40.68292 -114.77570 38940 ft 504 kts 87°
2026-04-11 19:04 40.68873 -114.68457 38929 ft 502 kts 87°
2026-04-11 19:05 40.69450 -114.59309 38931 ft 503 kts 87°
2026-04-11 19:05 40.70022 -114.50157 38936 ft 502 kts 87°
2026-04-11 19:06 40.70477 -114.41051 38928 ft 501 kts 89°
2026-04-11 19:06 40.70799 -114.31902 38916 ft 501 kts 90°
2026-04-11 19:07 40.71091 -114.22769 38920 ft 499 kts 90°
2026-04-11 19:07 40.71389 -114.13618 38924 ft 502 kts 90°
2026-04-11 19:08 40.71696 -114.04501 38812 ft 486 kts 90°
2026-04-11 19:08 40.71847 -114.00093 38626 ft 476 kts 90°
2026-04-11 19:08 40.71993 -113.95802 38154 ft 475 kts 90°
2026-04-11 19:08 40.72138 -113.91465 37560 ft 475 kts 90°
2026-04-11 19:09 40.72281 -113.87113 36839 ft 479 kts 90°
2026-04-11 19:09 40.72424 -113.82707 36040 ft 485 kts 90°
2026-04-11 19:09 40.72613 -113.78230 35251 ft 489 kts 88°
2026-04-11 19:09 40.73004 -113.73852 34988 ft 485 kts 83°
2026-04-11 19:10 40.73664 -113.69493 34898 ft 484 kts 79°
2026-04-11 19:10 40.75381 -113.60845 34891 ft 500 kts 76°
2026-04-11 19:11 40.77333 -113.51911 34886 ft 512 kts 76°
2026-04-11 19:11 40.79261 -113.42944 34880 ft 509 kts 76°
2026-04-11 19:12 40.81141 -113.33897 34880 ft 510 kts 77°
2026-04-11 19:12 40.82974 -113.24851 34875 ft 509 kts 78°
2026-04-11 19:13 40.84771 -113.15851 34876 ft 510 kts 78°
2026-04-11 19:13 40.86557 -113.06856 34872 ft 509 kts 78°
2026-04-11 19:14 40.88346 -112.97802 34890 ft 510 kts 78°
2026-04-11 19:14 40.90143 -112.88678 34899 ft 510 kts 78°
2026-04-11 19:15 40.91936 -112.79541 34891 ft 510 kts 78°
2026-04-11 19:15 40.93730 -112.70372 34890 ft 511 kts 78°
2026-04-11 19:16 40.95512 -112.61198 34897 ft 511 kts 78°
2026-04-11 19:16 40.97284 -112.52042 34890 ft 509 kts 78°
2026-04-11 19:17 40.99045 -112.42918 34885 ft 510 kts 78°
2026-04-11 19:17 41.00805 -112.33754 34890 ft 509 kts 79°
2026-04-11 19:18 41.02536 -112.24690 34885 ft 508 kts 79°
2026-04-11 19:18 41.04245 -112.15684 34887 ft 509 kts 79°
2026-04-11 19:19 41.05958 -112.06617 34891 ft 508 kts 80°
2026-04-11 19:19 41.07673 -111.97508 34901 ft 510 kts 80°
2026-04-11 19:20 41.09378 -111.88411 34777 ft 509 kts 79°
2026-04-11 19:20 41.11080 -111.79296 35045 ft 510 kts 79°
2026-04-11 19:20 41.11921 -111.74754 34925 ft 511 kts 80°
2026-04-11 19:21 41.12761 -111.70230 34920 ft 506 kts 80°
2026-04-11 19:21 41.14431 -111.61201 34838 ft 506 kts 80°
2026-04-11 19:21 41.15270 -111.56628 34970 ft 510 kts 80°
2026-04-11 19:22 41.16100 -111.52099 35049 ft 512 kts 80°
2026-04-11 19:22 41.16933 -111.47550 34848 ft 507 kts 80°
2026-04-11 19:22 41.17767 -111.43008 34985 ft 503 kts 80°
2026-04-11 19:22 41.18608 -111.38408 35147 ft 507 kts 80°
2026-04-11 19:23 41.19438 -111.33840 34981 ft 509 kts 81°
2026-04-11 19:23 41.21089 -111.24712 34881 ft 510 kts 81°
2026-04-11 19:23 41.21904 -111.20199 34990 ft 505 kts 81°
2026-04-11 19:24 41.22718 -111.15679 35005 ft 509 kts 81°
2026-04-11 19:24 41.24356 -111.06544 35087 ft 509 kts 81°
2026-04-11 19:24 41.25169 -111.02006 34975 ft 505 kts 82°
2026-04-11 19:25 41.25995 -110.97382 34943 ft 507 kts 81°
2026-04-11 19:25 41.27618 -110.88257 34911 ft 507 kts 82°
2026-04-11 19:25 41.28416 -110.83747 35113 ft 509 kts 81°
2026-04-11 19:26 41.29223 -110.79179 34989 ft 507 kts 82°
2026-04-11 19:26 41.30835 -110.70008 35050 ft 508 kts 82°
2026-04-11 19:27 41.32445 -110.60805 35018 ft 507 kts 82°
2026-04-11 19:27 41.34033 -110.51699 34958 ft 508 kts 82°
2026-04-11 19:28 41.35613 -110.42551 34976 ft 511 kts 82°
2026-04-11 19:28 41.36396 -110.38010 35182 ft 508 kts 82°
2026-04-11 19:28 41.37192 -110.33388 35055 ft 509 kts 82°
2026-04-11 19:29 41.38771 -110.24190 35060 ft 509 kts 82°
2026-04-11 19:29 41.40334 -110.15054 35015 ft 507 kts 82°
2026-04-11 19:30 41.41894 -110.05881 35021 ft 510 kts 83°
2026-04-11 19:30 41.43444 -109.96738 35021 ft 508 kts 82°
2026-04-11 19:31 41.44995 -109.87511 35001 ft 508 kts 83°
2026-04-11 19:31 41.46528 -109.78340 34993 ft 510 kts 82°
2026-04-11 19:32 41.48070 -109.69051 35013 ft 511 kts 82°
2026-04-11 19:32 41.49603 -109.59783 35017 ft 506 kts 83°
2026-04-11 19:33 41.51114 -109.50609 35023 ft 505 kts 82°
2026-04-11 19:33 41.52614 -109.41431 35024 ft 506 kts 83°
2026-04-11 19:34 41.54125 -109.32156 35020 ft 508 kts 83°
2026-04-11 19:34 41.55600 -109.23055 35010 ft 503 kts 83°
2026-04-11 19:35 41.57077 -109.13871 35011 ft 505 kts 83°
2026-04-11 19:35 41.58540 -109.04765 35021 ft 503 kts 83°
2026-04-11 19:36 41.59746 -108.95622 35021 ft 501 kts 88°
2026-04-11 19:36 41.60466 -108.86437 35015 ft 498 kts 90°
2026-04-11 19:37 41.61388 -108.72673 35022 ft 497 kts 90°
2026-04-11 19:37 41.62030 -108.63509 35030 ft 498 kts 89°
2026-04-11 19:38 41.62701 -108.54277 35023 ft 497 kts 89°
2026-04-11 19:38 41.63381 -108.45053 35029 ft 498 kts 89°
2026-04-11 19:39 41.64064 -108.35823 35033 ft 497 kts 89°
2026-04-11 19:39 41.64737 -108.26614 35018 ft 497 kts 90°
2026-04-11 19:40 41.65399 -108.17461 35020 ft 496 kts 90°
2026-04-11 19:40 41.66050 -108.08360 35021 ft 496 kts 90°
2026-04-11 19:41 41.66701 -107.99155 35009 ft 495 kts 90°
2026-04-11 19:41 41.67340 -107.90002 35015 ft 496 kts 90°
2026-04-11 19:42 41.67976 -107.80756 35015 ft 496 kts 90°
2026-04-11 19:42 41.68600 -107.71581 35030 ft 495 kts 90°
2026-04-11 19:43 41.69220 -107.62373 35027 ft 495 kts 90°
2026-04-11 19:43 41.69832 -107.53177 35025 ft 494 kts 89°
2026-04-11 19:44 41.70435 -107.44044 35041 ft 490 kts 90°
2026-04-11 19:44 41.71033 -107.34863 35029 ft 493 kts 90°
2026-04-11 19:45 41.71617 -107.25744 35043 ft 490 kts 90°
2026-04-11 19:45 41.72190 -107.16690 35053 ft 492 kts 90°
2026-04-11 19:46 41.72765 -107.07566 35037 ft 488 kts 90°
2026-04-11 19:46 41.73323 -106.98590 35030 ft 489 kts 90°
2026-04-11 19:47 41.73874 -106.89507 35045 ft 490 kts 90°
2026-04-11 19:47 41.74423 -106.80353 35050 ft 495 kts 90°
2026-04-11 19:48 41.74966 -106.71148 35065 ft 495 kts 90°
2026-04-11 19:48 41.75507 -106.61872 35059 ft 496 kts 90°
2026-04-11 19:49 41.76043 -106.52577 35073 ft 497 kts 90°
2026-04-11 19:49 41.76571 -106.43330 35074 ft 500 kts 90°
2026-04-11 19:50 41.77100 -106.33933 35055 ft 503 kts 91°
2026-04-11 19:50 41.77620 -106.24609 35075 ft 502 kts 91°
2026-04-11 19:51 41.78135 -106.15086 35071 ft 505 kts 91°
2026-04-11 19:51 41.78643 -106.05616 35065 ft 506 kts 92°
2026-04-11 19:52 41.79142 -105.96074 35054 ft 511 kts 92°
2026-04-11 19:52 41.79637 -105.86549 35066 ft 509 kts 92°
2026-04-11 19:53 41.80123 -105.77037 35040 ft 513 kts 92°
2026-04-11 19:53 41.80606 -105.67458 35024 ft 513 kts 92°
2026-04-11 19:54 41.81080 -105.57849 35036 ft 512 kts 92°
2026-04-11 19:54 41.81542 -105.48302 35018 ft 513 kts 92°
2026-04-11 19:55 41.82000 -105.38669 35015 ft 512 kts 92°
2026-04-11 19:55 41.82449 -105.29121 34990 ft 514 kts 92°
2026-04-11 19:56 41.82890 -105.19559 34975 ft 513 kts 92°
2026-04-11 19:56 41.83323 -105.10001 34979 ft 516 kts 92°
2026-04-11 19:57 41.83747 -105.00420 34968 ft 515 kts 93°
2026-04-11 19:57 41.84168 -104.90829 34970 ft 518 kts 92°
2026-04-11 19:58 41.84584 -104.81157 34951 ft 518 kts 93°
2026-04-11 19:58 41.84993 -104.71519 34961 ft 516 kts 92°
2026-04-11 19:59 41.85394 -104.61794 34940 ft 519 kts 92°
2026-04-11 19:59 41.85784 -104.52099 34940 ft 520 kts 92°
2026-04-11 20:00 41.86169 -104.42298 34927 ft 520 kts 92°
2026-04-11 20:00 41.86547 -104.32499 34919 ft 521 kts 92°
2026-04-11 20:01 41.86916 -104.22854 34908 ft 518 kts 93°
2026-04-11 20:01 41.87273 -104.13166 34897 ft 522 kts 93°
2026-04-11 20:02 41.87619 -104.03464 34904 ft 522 kts 92°
2026-04-11 20:02 41.87960 -103.93795 34901 ft 521 kts 92°
2026-04-11 20:03 41.88294 -103.83997 34911 ft 525 kts 92°
2026-04-11 20:03 41.88621 -103.74234 34888 ft 520 kts 93°
2026-04-11 20:04 41.88938 -103.64456 34887 ft 523 kts 92°
2026-04-11 20:04 41.89248 -103.54595 34882 ft 527 kts 92°
2026-04-11 20:05 41.89893 -103.44790 34888 ft 531 kts 86°
2026-04-11 20:05 41.91089 -103.35046 34886 ft 534 kts 83°
2026-04-11 20:06 41.92528 -103.25218 34896 ft 536 kts 83°
2026-04-11 20:06 41.93987 -103.15421 34908 ft 534 kts 82°
2026-04-11 20:07 41.95405 -103.05603 34896 ft 536 kts 83°
2026-04-11 20:07 41.96789 -102.95715 34906 ft 538 kts 83°
2026-04-11 20:08 41.98150 -102.85779 34887 ft 537 kts 83°
2026-04-11 20:08 41.99503 -102.75818 34887 ft 537 kts 83°
2026-04-11 20:09 42.00849 -102.65818 34904 ft 541 kts 83°
2026-04-11 20:09 42.02174 -102.55948 34901 ft 535 kts 82°
2026-04-11 20:10 42.03059 -102.49327 34911 ft 538 kts 83°
2026-04-11 20:10 42.03287 -102.47607 34904 ft 538 kts 83°
2026-04-11 20:11 42.06142 -102.25939 34900 ft 539 kts 83°
2026-04-11 20:11 42.06793 -102.20959 34795 ft 538 kts 83°
2026-04-11 20:11 42.07432 -102.16061 34921 ft 537 kts 83°
2026-04-11 20:12 42.08717 -102.06130 34904 ft 539 kts 83°
2026-04-11 20:12 42.09993 -101.96190 34903 ft 542 kts 83°
2026-04-11 20:13 42.11268 -101.86208 34898 ft 541 kts 83°
2026-04-11 20:13 42.12525 -101.76321 34904 ft 540 kts 83°
2026-04-11 20:14 42.13780 -101.66348 34902 ft 541 kts 83°
2026-04-11 20:14 42.15019 -101.56428 34903 ft 539 kts 83°
2026-04-11 20:15 42.16255 -101.46480 34897 ft 539 kts 83°
2026-04-11 20:15 42.17500 -101.36367 34908 ft 540 kts 83°
2026-04-11 20:16 42.18711 -101.26460 34900 ft 539 kts 84°
2026-04-11 20:16 42.19922 -101.16492 34883 ft 536 kts 84°
2026-04-11 20:17 42.21114 -101.06625 34871 ft 534 kts 84°
2026-04-11 20:17 42.22293 -100.96739 34876 ft 537 kts 84°
2026-04-11 20:18 42.23471 -100.86779 34884 ft 540 kts 84°
2026-04-11 20:18 42.24652 -100.76729 34873 ft 537 kts 84°
2026-04-11 20:19 42.25830 -100.66634 34882 ft 538 kts 83°
2026-04-11 20:19 42.26992 -100.56601 34877 ft 536 kts 84°
2026-04-11 20:20 42.28147 -100.46551 34871 ft 535 kts 83°
2026-04-11 20:20 42.29289 -100.36538 34869 ft 538 kts 83°
2026-04-11 20:21 42.30425 -100.26518 34876 ft 537 kts 84°
2026-04-11 20:21 42.31541 -100.16576 34879 ft 538 kts 84°
2026-04-11 20:22 42.32644 -100.06657 34874 ft 536 kts 84°
2026-04-11 20:22 42.33746 -99.96662 34855 ft 538 kts 84°
2026-04-11 20:23 42.34839 -99.86714 34870 ft 534 kts 84°
2026-04-11 20:23 42.35931 -99.76657 34892 ft 538 kts 84°
2026-04-11 20:24 42.37014 -99.66565 34888 ft 537 kts 83°
2026-04-11 20:24 42.38090 -99.56492 34892 ft 536 kts 83°
2026-04-11 20:25 42.39163 -99.46412 34889 ft 532 kts 84°
2026-04-11 20:25 42.40220 -99.36380 34879 ft 533 kts 84°
2026-04-11 20:26 42.41252 -99.26462 34891 ft 534 kts 84°
2026-04-11 20:26 42.42273 -99.16564 34890 ft 530 kts 84°
2026-04-11 20:27 42.43280 -99.06721 34886 ft 533 kts 84°
2026-04-11 20:27 42.44289 -98.96795 34887 ft 530 kts 84°
2026-04-11 20:28 42.45289 -98.86877 34906 ft 529 kts 84°
2026-04-11 20:28 42.46286 -98.76872 35107 ft 533 kts 84°
2026-04-11 20:29 42.46776 -98.71925 35609 ft 532 kts 84°
2026-04-11 20:29 42.47252 -98.66998 36083 ft 530 kts 85°
2026-04-11 20:29 42.47609 -98.62071 36540 ft 528 kts 88°
2026-04-11 20:29 42.47845 -98.57140 36914 ft 528 kts 89°
2026-04-11 20:30 42.48151 -98.47128 37227 ft 532 kts 90°
2026-04-11 20:30 42.48280 -98.42178 37779 ft 526 kts 90°
2026-04-11 20:30 42.48416 -98.37204 38321 ft 522 kts 90°
2026-04-11 20:31 42.48561 -98.32307 38657 ft 520 kts 90°
2026-04-11 20:31 42.48714 -98.27368 38709 ft 524 kts 90°
2026-04-11 20:31 42.48873 -98.22475 38868 ft 525 kts 90°
2026-04-11 20:31 42.49041 -98.17568 38908 ft 525 kts 90°
2026-04-11 20:32 42.49383 -98.07736 38913 ft 527 kts 90°
2026-04-11 20:32 42.49727 -97.97845 38917 ft 527 kts 90°
2026-04-11 20:33 42.50061 -97.87949 38919 ft 526 kts 90°
2026-04-11 20:33 42.50390 -97.78056 38922 ft 525 kts 89°
2026-04-11 20:34 42.50708 -97.68162 38926 ft 528 kts 89°
2026-04-11 20:34 42.51014 -97.58249 38926 ft 528 kts 90°
2026-04-11 20:35 42.51311 -97.48363 38928 ft 529 kts 89°
2026-04-11 20:35 42.51601 -97.38448 38931 ft 529 kts 89°
2026-04-11 20:36 42.51884 -97.28539 38934 ft 528 kts 89°
2026-04-11 20:36 42.52158 -97.18618 38936 ft 528 kts 90°
2026-04-11 20:37 42.52419 -97.08759 38940 ft 527 kts 89°
2026-04-11 20:37 42.52670 -96.98898 38946 ft 526 kts 90°
2026-04-11 20:38 42.52917 -96.88974 38950 ft 527 kts 89°
2026-04-11 20:38 42.53158 -96.79105 38960 ft 527 kts 89°
2026-04-11 20:39 42.53390 -96.69235 38974 ft 527 kts 89°
2026-04-11 20:39 42.53613 -96.59308 38984 ft 527 kts 89°
2026-04-11 20:40 42.53826 -96.49458 38993 ft 526 kts 89°
2026-04-11 20:40 42.54026 -96.39509 38997 ft 528 kts 89°
2026-04-11 20:41 42.54221 -96.29643 39001 ft 528 kts 90°
2026-04-11 20:41 42.54413 -96.19715 39006 ft 528 kts 90°
2026-04-11 20:42 42.54597 -96.09758 39007 ft 528 kts 90°
2026-04-11 20:42 42.54765 -95.99902 39013 ft 528 kts 89°
2026-04-11 20:43 42.54926 -95.89988 39009 ft 528 kts 90°
2026-04-11 20:44 42.55128 -95.76650 39018 ft 527 kts 90°
2026-04-11 20:44 42.55231 -95.69546 39020 ft 529 kts 90°
2026-04-11 20:45 42.55371 -95.59583 39025 ft 527 kts 90°
2026-04-11 20:45 42.55500 -95.49727 39033 ft 527 kts 89°
2026-04-11 20:46 42.55623 -95.39777 39049 ft 528 kts 90°
2026-04-11 20:47 42.55786 -95.24938 39053 ft 527 kts 90°
2026-04-11 20:47 42.55880 -95.15024 39054 ft 527 kts 90°
2026-04-11 20:48 42.55969 -95.05119 39048 ft 527 kts 90°
2026-04-11 20:48 42.56049 -94.95291 39030 ft 525 kts 90°
2026-04-11 20:49 42.56122 -94.85377 39031 ft 526 kts 90°
2026-04-11 20:49 42.56188 -94.75481 39041 ft 526 kts 90°
2026-04-11 20:50 42.56241 -94.65660 39043 ft 525 kts 90°
2026-04-11 20:50 42.56282 -94.55753 39046 ft 525 kts 90°
2026-04-11 20:51 42.56321 -94.45884 39060 ft 525 kts 90°
2026-04-11 20:51 42.56352 -94.36054 39077 ft 526 kts 90°
2026-04-11 20:52 42.56374 -94.26144 39094 ft 524 kts 91°
2026-04-11 20:52 42.56360 -94.16361 39103 ft 523 kts 91°
2026-04-11 20:53 42.56318 -94.06500 39101 ft 524 kts 91°
2026-04-11 20:53 42.56264 -93.96688 39100 ft 524 kts 91°
2026-04-11 20:54 42.56208 -93.86824 39107 ft 524 kts 91°
2026-04-11 20:54 42.56148 -93.76949 39104 ft 523 kts 91°
2026-04-11 20:55 42.56083 -93.67132 39107 ft 524 kts 91°
2026-04-11 20:55 42.56011 -93.57330 39096 ft 524 kts 91°
2026-04-11 20:56 42.55927 -93.47445 39100 ft 523 kts 90°
2026-04-11 20:56 42.55834 -93.37641 39138 ft 524 kts 90°
2026-04-11 20:57 42.55731 -93.27832 39145 ft 524 kts 92°
2026-04-11 20:57 42.55616 -93.17949 39148 ft 524 kts 91°
2026-04-11 20:58 42.55481 -93.08112 39141 ft 525 kts 92°
2026-04-11 20:58 42.55249 -92.98266 39126 ft 526 kts 92°
2026-04-11 20:59 42.54967 -92.88422 39130 ft 526 kts 93°
2026-04-11 20:59 42.54676 -92.78530 39136 ft 526 kts 92°
2026-04-11 21:00 42.54389 -92.68639 39152 ft 525 kts 92°
2026-04-11 21:00 42.54102 -92.58823 39160 ft 525 kts 92°
2026-04-11 21:01 42.53809 -92.48983 39177 ft 525 kts 92°
2026-04-11 21:01 42.53505 -92.39088 39180 ft 526 kts 92°
2026-04-11 21:02 42.53194 -92.29218 39185 ft 525 kts 93°
2026-04-11 21:02 42.52876 -92.19385 39196 ft 524 kts 93°
2026-04-11 21:03 42.52549 -92.09548 39205 ft 526 kts 92°
2026-04-11 21:03 42.52301 -91.99694 39208 ft 526 kts 90°
2026-04-11 21:04 42.52359 -91.89793 39217 ft 525 kts 89°
2026-04-11 21:04 42.52509 -91.79936 39213 ft 527 kts 88°
2026-04-11 21:05 42.52628 -91.70087 39203 ft 527 kts 88°
2026-04-11 21:05 42.52700 -91.60188 39206 ft 526 kts 89°
2026-04-11 21:06 42.52740 -91.50276 39210 ft 527 kts 89°
2026-04-11 21:06 42.52763 -91.40408 39200 ft 527 kts 89°
2026-04-11 21:07 42.52771 -91.30479 39202 ft 526 kts 89°
2026-04-11 21:07 42.52769 -91.20609 39212 ft 526 kts 89°
2026-04-11 21:08 42.52760 -91.10737 39212 ft 527 kts 89°
2026-04-11 21:08 42.52753 -91.05758 39000 ft 524 kts 89°
2026-04-11 21:08 42.52743 -91.00886 38534 ft 518 kts 89°
2026-04-11 21:08 42.52732 -90.96066 38039 ft 515 kts 89°
2026-04-11 21:09 42.52720 -90.91251 37349 ft 515 kts 89°
2026-04-11 21:09 42.52705 -90.86395 36659 ft 511 kts 89°
2026-04-11 21:09 42.52688 -90.81623 35964 ft 507 kts 89°
2026-04-11 21:09 42.52669 -90.76811 35175 ft 505 kts 89°
2026-04-11 21:10 42.52647 -90.72045 34398 ft 506 kts 89°
2026-04-11 21:10 42.52621 -90.67253 33668 ft 506 kts 89°
2026-04-11 21:10 42.52591 -90.62496 33120 ft 504 kts 89°
2026-04-11 21:10 42.52556 -90.57716 32506 ft 512 kts 89°
2026-04-11 21:11 42.52520 -90.52917 31865 ft 517 kts 89°
2026-04-11 21:11 42.52480 -90.48031 31198 ft 515 kts 89°
2026-04-11 21:11 42.52440 -90.43246 30547 ft 511 kts 89°
2026-04-11 21:11 42.52399 -90.38431 29882 ft 508 kts 89°
2026-04-11 21:12 42.52356 -90.33684 29251 ft 504 kts 90°
2026-04-11 21:12 42.52314 -90.28970 28553 ft 501 kts 90°
2026-04-11 21:12 42.52277 -90.24301 27877 ft 498 kts 90°
2026-04-11 21:12 42.52246 -90.19636 27193 ft 495 kts 90°
2026-04-11 21:13 42.52215 -90.15034 26544 ft 491 kts 89°
2026-04-11 21:13 42.52184 -90.10403 25927 ft 486 kts 90°
2026-04-11 21:13 42.52149 -90.05824 25281 ft 482 kts 90°
2026-04-11 21:13 42.52113 -90.01344 24632 ft 478 kts 90°
2026-04-11 21:14 42.52074 -89.96823 23989 ft 475 kts 90°
2026-04-11 21:14 42.52033 -89.92419 23364 ft 471 kts 89°
2026-04-11 21:14 42.51991 -89.87992 22744 ft 467 kts 89°
2026-04-11 21:14 42.51947 -89.83586 22104 ft 464 kts 89°
2026-04-11 21:15 42.51884 -89.79286 21508 ft 458 kts 91°
2026-04-11 21:15 42.51654 -89.75016 21256 ft 444 kts 95°
2026-04-11 21:15 42.51262 -89.71001 21256 ft 425 kts 98°
2026-04-11 21:15 42.50792 -89.67099 21216 ft 410 kts 99°
2026-04-11 21:16 42.50303 -89.63350 20742 ft 409 kts 99°
2026-04-11 21:16 42.49795 -89.59541 20166 ft 411 kts 99°
2026-04-11 21:16 42.49295 -89.55779 19575 ft 410 kts 99°
2026-04-11 21:16 42.48798 -89.51987 18983 ft 407 kts 99°
2026-04-11 21:17 42.48311 -89.48228 18431 ft 404 kts 99°
2026-04-11 21:17 42.47838 -89.44543 17853 ft 401 kts 99°
2026-04-11 21:17 42.47375 -89.40881 17580 ft 389 kts 99°
2026-04-11 21:17 42.46927 -89.37287 17149 ft 383 kts 99°
2026-04-11 21:18 42.46496 -89.33780 16934 ft 373 kts 100°
2026-04-11 21:18 42.46078 -89.30370 16939 ft 368 kts 100°
2026-04-11 21:18 42.45653 -89.26901 16942 ft 377 kts 100°
2026-04-11 21:18 42.45220 -89.23390 16831 ft 385 kts 100°
2026-04-11 21:19 42.44774 -89.19789 16575 ft 385 kts 100°
2026-04-11 21:19 42.44340 -89.16286 16331 ft 379 kts 100°
2026-04-11 21:19 42.43901 -89.12766 16082 ft 377 kts 100°
2026-04-11 21:19 42.43465 -89.09297 15774 ft 377 kts 101°
2026-04-11 21:20 42.43019 -89.05809 15287 ft 374 kts 101°
2026-04-11 21:20 42.42582 -89.02383 14752 ft 372 kts 101°
2026-04-11 21:20 42.42150 -88.98959 14194 ft 371 kts 101°
2026-04-11 21:20 42.41716 -88.95514 13653 ft 370 kts 101°
2026-04-11 21:21 42.41290 -88.92127 13146 ft 368 kts 101°
2026-04-11 21:21 42.40864 -88.88747 12952 ft 356 kts 101°
2026-04-11 21:21 42.40456 -88.85523 12957 ft 348 kts 101°
2026-04-11 21:21 42.40044 -88.82295 12795 ft 347 kts 101°
2026-04-11 21:22 42.39630 -88.79082 12373 ft 352 kts 101°
2026-04-11 21:22 42.39207 -88.75806 11880 ft 352 kts 101°
2026-04-11 21:22 42.38791 -88.72578 11376 ft 351 kts 101°
2026-04-11 21:22 42.38377 -88.69376 11018 ft 344 kts 102°
2026-04-11 21:23 42.37972 -88.66236 10946 ft 329 kts 102°
2026-04-11 21:23 42.37587 -88.63244 10939 ft 316 kts 102°
2026-04-11 21:23 42.37212 -88.60355 10939 ft 315 kts 102°
2026-04-11 21:23 42.36829 -88.57439 10934 ft 319 kts 102°
2026-04-11 21:24 42.36435 -88.54462 10781 ft 322 kts 102°
2026-04-11 21:24 42.36048 -88.51520 10532 ft 319 kts 102°
2026-04-11 21:24 42.35660 -88.48571 10282 ft 314 kts 102°
2026-04-11 21:24 42.35284 -88.45704 10041 ft 313 kts 102°
2026-04-11 21:25 42.34825 -88.42837 9782 ft 308 kts 109°
2026-04-11 21:25 42.33955 -88.40293 9526 ft 294 kts 131°
2026-04-11 21:25 42.32450 -88.38557 9282 ft 277 kts 158°
2026-04-11 21:25 42.30685 -88.37691 9048 ft 270 kts 167°
2026-04-11 21:26 42.28893 -88.36941 8791 ft 271 kts 166°
2026-04-11 21:26 42.27118 -88.36144 8543 ft 269 kts 165°
2026-04-11 21:26 42.25348 -88.35323 8284 ft 267 kts 165°
2026-04-11 21:26 42.23606 -88.34511 8037 ft 266 kts 165°
2026-04-11 21:27 42.21846 -88.33695 7786 ft 265 kts 165°
2026-04-11 21:27 42.20097 -88.32887 7534 ft 264 kts 165°
2026-04-11 21:27 42.18375 -88.32098 7288 ft 262 kts 165°
2026-04-11 21:27 42.16643 -88.31303 7041 ft 261 kts 165°
2026-04-11 21:28 42.14940 -88.30522 6803 ft 260 kts 165°
2026-04-11 21:28 42.13221 -88.29734 6623 ft 260 kts 165°
2026-04-11 21:28 42.11515 -88.28954 6310 ft 260 kts 165°
2026-04-11 21:28 42.09804 -88.28171 5976 ft 257 kts 165°
2026-04-11 21:29 42.08133 -88.27406 5667 ft 254 kts 164°
2026-04-11 21:29 42.06459 -88.26641 5374 ft 251 kts 163°
2026-04-11 21:29 42.04828 -88.25895 5253 ft 240 kts 163°
2026-04-11 21:29 42.03294 -88.25193 5186 ft 229 kts 163°
2026-04-11 21:30 42.01812 -88.24515 5119 ft 218 kts 163°
2026-04-11 21:30 42.00411 -88.23795 5058 ft 218 kts 155°
2026-04-11 21:30 41.99248 -88.22485 4969 ft 220 kts 123°
2026-04-11 21:30 41.98786 -88.20543 4701 ft 225 kts 95°
2026-04-11 21:31 41.98795 -88.18414 4378 ft 224 kts 92°
2026-04-11 21:31 41.98766 -88.16351 4110 ft 218 kts 94°
2026-04-11 21:31 41.98741 -88.14365 3832 ft 211 kts 92°
2026-04-11 21:32 41.98764 -88.10524 3214 ft 198 kts 93°
2026-04-11 21:32 41.98769 -88.08778 2992 ft 178 kts 93°
2026-04-11 21:32 41.98790 -88.07179 2687 ft 166 kts 92°
2026-04-11 21:32 41.98782 -88.05661 2512 ft 160 kts 94°
2026-04-11 21:33 41.98774 -88.04161 2418 ft 162 kts 93°
2026-04-11 21:33 41.98787 -88.02614 2126 ft 166 kts 92°
2026-04-11 21:33 41.98806 -88.01096 1805 ft 159 kts 92°
2026-04-11 21:33 41.98814 -87.99722 1681 ft 142 kts 94°
2026-04-11 21:34 41.98803 -87.98407 1492 ft 140 kts 93°
2026-04-11 21:34 41.98809 -87.97124 1333 ft 139 kts 92°
2026-04-11 21:34 41.98812 -87.95828 1118 ft 137 kts 92°
2026-04-11 21:34 41.98804 -87.94537 929 ft 137 kts 92°
2026-04-11 21:35 41.98816 -87.93253 761 ft 136 kts 91°
2026-04-11 21:35 41.98817 -87.91997 682 ft 130 kts 91°
2026-04-11 21:35 41.98815 -87.90981 674 ft 69 kts 88°
2026-04-11 21:35 41.98783 -87.90551 674 ft 35 kts 112°
2026-04-11 21:36 41.98687 -87.90306 674 ft 26 kts 112°
2026-04-11 21:36 41.98663 -87.90065 674 ft 25 kts 89°
2026-04-11 21:36 41.98663 -87.89819 674 ft 29 kts 89°
2026-04-11 21:36 41.98664 -87.89621 674 ft 20 kts 91°
2026-04-11 21:37 41.98631 -87.89484 674 ft 15 kts 150°
2026-04-11 21:37 41.98516 -87.89472 674 ft 20 kts 180°
2026-04-11 21:37 41.98329 -87.89471 674 ft 23 kts 179°
2026-04-11 21:37 41.98179 -87.89430 674 ft 22 kts 138°
2026-04-11 21:38 41.98076 -87.89311 674 ft 15 kts 172°
2026-04-11 21:38 41.97992 -87.89394 674 ft 16 kts 230°
2026-04-11 21:38 41.97887 -87.89500 674 ft 19 kts 190°
2026-04-11 21:38 41.97754 -87.89502 674 ft 15 kts 179°
2026-04-11 21:39 41.97643 -87.89502 674 ft 16 kts 180°
2026-04-11 21:39 41.97534 -87.89519 674 ft 15 kts 222°
2026-04-11 21:39 41.97528 -87.89654 674 ft 15 kts 289°
2026-04-11 21:39 41.97559 -87.89758 674 ft 9 kts 288°
2026-04-11 21:40 41.97578 -87.89844 674 ft 9 kts 289°
2026-04-11 21:40 41.97593 -87.89899 674 ft 3 kts 286°
2026-04-11 21:40 41.97594 -87.89905 674 ft 0 kts 284°
2026-04-11 21:40 41.97595 -87.89908 674 ft 2 kts 284°
2026-04-11 21:41 41.97604 -87.89937 674 ft 6 kts 302°
2026-04-11 21:41 41.97629 -87.89970 674 ft 2 kts 320°
2026-04-11 21:41 41.97636 -87.89977 674 ft 1 kts 321°
2026-04-11 21:41 41.97636 -87.89978 674 ft 0 kts 321°